Theta_e
297 295 293 292 291 291 290 289 289 289 288 288 287 287 286 286 286 285 284 284 284 284 284 284 283 283 283 282 282 282 282 282
297 295 293 292 291 290 290 289 288 288 287 287 286 286 286 286 285 285 285 284 284 284 284 284 284 283 282 282 281 281 281 281
298 296 293 292 291 290 290 289 288 288 287 286 286 286 286 285 285 285 285 285 285 285 285 284 283 282 281 280 280 280 280 280
299 297 294 293 291 291 290 289 288 287 287 286 286 285 286 285 285 285 285 285 285 284 283 282 282 281 280 280 279 279 279 279
300 298 296 294 292 291 291 289 288 287 286 286 286 286 286 285 285 285 285 285 284 283 282 282 281 280 279 279 279 279 279 278
301 300 298 296 293 292 291 289 288 287 286 286 286 285 285 285 284 284 284 284 283 282 281 280 280 279 278 278 278 278 278 277
301 300 299 297 296 293 291 290 288 287 286 286 286 285 285 284 284 284 283 283 283 281 280 280 279 278 278 277 277 277 277 277
301 299 299 298 296 295 293 291 288 287 286 286 286 285 284 284 284 283 283 282 281 280 279 279 279 278 277 276 276 276 276 276
300 299 298 297 296 295 294 291 288 287 286 285 285 285 284 284 283 283 281 281 280 279 279 278 278 277 276 275 274 275 275 275
299 298 296 294 293 292 291 290 289 287 286 286 285 284 284 283 283 282 281 280 279 278 278 277 277 276 275 274 274 274 275 274
295 294 292 291 291 290 289 288 288 288 288 288 287 285 284 284 283 282 281 279 278 278 277 277 277 275 274 273 273 274 274 275
291 291 291 290 290 288 288 288 290 289 288 287 286 285 284 283 282 281 279 278 277 277 276 275 275 275 273 273 273 274 274 274
289 289 289 289 289 288 288 290 289 288 287 286 285 284 283 282 281 279 278 277 275 274 274 274 274 273 273 272 273 274 274 274
289 289 288 288 288 288 289 289 288 287 286 285 284 283 282 281 279 277 276 274 274 273 273 273 273 272 271 272 273 273 274 274
288 287 287 288 288 289 288 288 287 286 285 283 282 281 279 278 277 276 274 273 273 273 274 273 273 272 272 271 272 272 274 274
287 287 288 288 288 288 287 286 286 284 283 281 279 278 277 276 276 275 275 275 274 274 273 273 272 273 273 272 273 273 274 275
287 286 287 287 287 287 286 285 284 282 280 278 277 275 274 274 274 273 273 272 272 272 272 272 273 273 274 275 274 274 273 272
287 287 286 286 285 284 284 283 281 279 279 277 275 275 273 273 272 273 273 272 273 273 273 273 273 273 273 273 273 273 270 269
286 285 284 283 282 281 281 279 277 276 276 275 274 273 273 272 272 271 271 271 270 270 269 269 270 270 271 272 272 270 268 267
281 280 279 278 277 276 276 275 274 274 273 272 272 271 270 270 269 268 268 267 267 267 266 266 267 268 269 269 269 268 267 265
Wind_Speed
20 21 20 19 17 15 14 14 15 14 13 13 13 13 13 13 12 11 12 10 8 7 6 6 7 8 8 8 9 9 10 10
20 22 22 21 21 19 18 16 16 15 13 15 15 14 13 13 13 12 11 9 7 5 3 3 3 5 7 8 8 9 10 10
21 23 23 22 21 21 19 18 17 16 15 16 16 16 14 14 13 12 10 9 6 4 2 0 3 5 7 7 8 10 10 12
19 23 24 25 24 22 20 19 19 17 19 18 18 17 16 16 15 13 11 9 7 5 4 3 4 6 7 8 10 10 11 12
15 22 25 25 25 23 21 21 22 21 21 21 20 20 18 17 16 14 12 11 9 7 5 5 6 7 8 9 11 12 13 13
17 18 24 25 24 23 23 24 24 23 23 22 22 21 19 19 19 17 14 12 11 9 8 8 9 9 9 11 12 13 14 14
15 18 22 24 24 24 24 25 25 26 25 23 23 23 24 23 21 19 17 15 13 12 11 11 11 12 13 13 14 14 14 15
15 19 21 23 24 24 25 24 28 28 28 27 26 28 28 26 23 22 19 17 15 14 14 14 14 15 15 13 15 15 15 15
16 19 20 20 21 20 21 24 28 30 29 30 31 30 28 27 26 23 20 19 18 16 16 16 16 16 16 15 16 16 16 15
17 18 18 19 19 21 22 24 25 26 29 31 32 31 30 31 29 25 22 20 20 19 18 18 18 18 17 14 15 15 16 15
18 19 18 18 19 20 21 22 24 25 26 28 29 31 31 31 30 27 24 22 20 20 20 20 21 19 17 15 14 16 15 15
18 18 17 18 20 21 20 22 20 19 21 22 24 25 26 27 26 27 25 22 22 22 21 22 22 20 17 15 15 15 16 16
16 17 18 19 21 21 22 20 18 17 19 20 21 22 23 24 25 25 24 23 23 21 21 21 21 19 16 15 15 15 18 19
18 18 17 20 23 24 25 21 19 20 21 21 21 21 22 23 25 24 23 22 19 18 17 16 15 17 14 15 15 16 17 19
18 17 19 22 26 29 26 21 20 22 22 22 22 22 22 22 23 23 22 21 20 17 16 15 14 15 13 13 12 14 16 18
18 21 25 25 28 30 29 23 21 21 22 22 22 23 22 24 24 26 25 24 21 20 19 15 13 13 13 12 14 15 18 17
18 21 26 25 26 27 26 25 24 22 21 22 21 20 20 17 18 18 18 15 17 17 18 18 16 15 16 18 17 18 16 14
22 23 22 21 19 17 18 20 22 21 17 16 16 13 12 12 12 11 12 15 18 19 20 20 21 19 18 18 18 16 12 13
15 15 15 14 13 13 13 14 15 16 12 12 10 10 9 9 9 10 10 11 12 13 15 16 17 17 17 18 17 15 10 16
9 10 10 9 8 7 8 9 10 12 10 11 10 9 9 9 9 10 11 12 13 14 16 17 16 16 16 16 19 17 16 16
Wind_Direction
179 179 179 180 178 176 174 170 160 161 156 151 148 149 150 147 145 146 141 132 114 94 78 51 30 12 5 352 340 342 335 335
183 184 183 182 183 184 183 177 172 169 166 162 159 161 160 160 159 156 151 139 126 114 90 41 4 344 345 331 325 327 324 325
183 182 184 188 187 188 188 187 185 175 173 173 172 175 174 174 172 166 160 155 154 161 167 300 323 329 330 318 316 315 315 313
185 189 190 192 192 190 191 194 189 183 182 183 182 184 184 186 184 175 174 180 183 198 205 256 299 310 308 303 305 305 303 303
190 192 193 193 193 191 195 197 192 191 190 189 189 193 193 193 192 190 190 198 205 216 232 261 282 291 296 294 297 293 292 290
195 193 192 192 192 193 197 197 196 194 196 196 197 198 196 200 202 202 205 212 221 230 244 264 276 283 272 285 286 285 285 284
193 189 194 192 193 191 198 199 195 198 201 198 198 201 205 209 210 213 217 224 234 240 254 261 272 275 280 279 284 282 282 283
188 186 189 193 191 196 199 197 198 205 207 204 203 210 214 216 217 220 223 229 236 244 252 262 269 272 277 274 277 279 279 279
183 185 188 192 189 195 195 197 204 211 211 213 212 216 219 220 223 224 227 233 238 246 252 259 268 271 273 272 276 277 276 277
174 177 172 173 181 184 190 197 208 212 217 220 219 221 224 225 227 228 229 234 240 245 251 258 264 267 270 267 271 274 276 279
151 156 162 171 181 183 190 198 210 217 222 224 226 227 229 233 232 231 234 237 239 246 252 259 263 266 265 256 265 271 276 278
159 164 172 178 183 187 190 202 215 217 220 225 229 232 235 235 233 232 230 234 239 245 251 258 264 267 258 250 259 269 276 278
164 179 186 190 190 192 197 207 214 219 221 223 226 227 228 229 228 226 226 231 238 245 254 261 265 265 255 250 255 266 271 277
188 193 197 199 200 199 210 217 221 219 220 223 223 223 224 221 220 218 223 227 237 241 248 252 252 264 248 250 259 260 268 276
198 205 210 213 214 218 222 226 224 223 224 222 221 217 218 217 220 222 226 230 234 233 239 246 244 251 254 258 263 264 271 278
209 219 225 221 223 226 230 230 228 227 229 225 222 221 222 222 225 228 234 235 232 237 243 242 244 249 253 253 258 272 276 280
223 229 235 233 235 238 241 239 235 231 230 226 221 223 220 228 236 236 241 241 241 245 252 267 263 263 264 267 266 275 279 278
232 238 240 242 243 244 246 242 236 229 224 218 212 215 220 224 231 245 255 244 249 254 256 257 264 264 262 263 268 270 258 271
248 249 247 244 244 247 243 233 224 212 202 207 219 216 220 228 241 253 261 264 263 262 257 258 257 259 261 263 261 247 252 271
233 234 233 225 219 225 217 206 197 195 203 203 207 215 224 233 247 255 261 267 273 276 271 268 259 257 255 256 256 243 250 259